Change the Weather History Date:

Thursday, November 8, 2012

  Actual Average Record
Temperature  
Mean Temperature 35 °F -  
Max Temperature 46 °F 50 °F 66 °F (2001)
Min Temperature 24 °F 33 °F 24 °F (2012)
Degree Days  
Heating Degree Days 30    
Moisture  
Dew Point 27 °F    
Average Humidity 82    
Maximum Humidity 100    
Minimum Humidity 53    
Precipitation  
Precipitation 0.00 in - - ()
Sea Level Pressure  
Sea Level Pressure 30.17 in    
Wind  
Wind Speed 3 mph (NNW)    
Max Wind Speed 10 mph    
Max Gust Speed -    
Visibility 8 miles    
Events      
Averages and records for this station are not official NWS values.
T = Trace of Precipitation, MM = Missing Value Source: NWS Daily Summary

Daily Weather History Graph

Daily Weather History Graph

Search for Another Location

Airport or City:

Trip Planner

Search our weather history database for the weather conditions in past years. The results will help you decide how hot, cold, wet, or windy it might be!

Date:

Astronomy

Nov. 08, 2012 Rise Set
Actual Time 7:06 AM EST 5:15 PM EST
Civil Twilight 6:37 AM EST 5:44 PM EST
Nautical Twilight 6:05 AM EST 6:16 PM EST
Astronomical Twilight 5:32 AM EST 6:49 PM EST
Moon 12:58 AM EST (11/8) 1:57 PM EST (11/8)
Length of Visible Light 11h 06m
Length of Day
10h 08m
Waning Crescent, 33% of the Moon is Illuminated
Nov 8
Waning Crescent
Nov 13
New
Nov 20
First Quarter
Nov 28
Full
Dec 6
Last Quarter

Hourly Weather History & Observations

Time (EST) Temp. Windchill Dew Point Humidity Pressure Visibility Wind Dir Wind Speed Gust Speed Precip Events Conditions
12:56 AM 28.0 °F 22.8 °F 24.1 °F 85% 30.12 in 10.0 mi North 4.6 mph - N/A   Partly Cloudy
2:56 AM 27.0 °F 23.0 °F 24.1 °F 89% 30.12 in 10.0 mi NNW 3.5 mph - N/A   Clear
3:34 AM 28.4 °F 24.6 °F 26.6 °F 93% 30.10 in 9.0 mi NNW 3.5 mph - N/A   Mostly Cloudy
3:56 AM 28.0 °F - 26.1 °F 92% 30.13 in 9.0 mi Calm Calm - N/A   Mostly Cloudy
4:14 AM 26.6 °F - 24.8 °F 93% 30.10 in 9.0 mi Calm Calm - N/A   Scattered Clouds
4:44 AM 26.6 °F - 24.8 °F 93% 30.11 in 7.0 mi Calm Calm - N/A   Mostly Cloudy
4:56 AM 26.1 °F - 24.1 °F 92% 30.15 in 8.0 mi Calm Calm - N/A   Scattered Clouds
5:56 AM 25.0 °F - 23.0 °F 92% 30.17 in 6.0 mi Calm Calm - N/A   Scattered Clouds
6:08 AM 24.8 °F - 24.8 °F 100% 30.14 in 7.0 mi Calm Calm - N/A   Mostly Cloudy
6:56 AM 25.0 °F - 23.0 °F 92% 30.19 in 6.0 mi Calm Calm - N/A   Mostly Cloudy
7:12 AM 24.8 °F - 23.0 °F 93% 30.15 in 5.0 mi Calm Calm - N/A   Scattered Clouds
7:38 AM 26.6 °F - 26.6 °F 100% 30.16 in 4.0 mi Calm Calm - N/A   Mostly Cloudy
7:56 AM 28.9 °F - 28.0 °F 96% 30.21 in 4.0 mi Calm Calm - N/A   Overcast
8:56 AM 34.0 °F - 30.9 °F 89% 30.22 in 5.0 mi Calm Calm - N/A   Overcast
9:56 AM 37.9 °F 33.5 °F 34.0 °F 86% 30.22 in 6.0 mi Variable 5.8 mph - N/A   Overcast
10:56 AM 41.0 °F 35.2 °F 33.1 °F 73% 30.23 in 8.0 mi North 9.2 mph - N/A   Mostly Cloudy
11:56 AM 42.1 °F 37.1 °F 32.0 °F 67% 30.21 in 8.0 mi NW 8.1 mph - N/A   Mostly Cloudy
12:52 PM 42.8 °F 37.0 °F 30.2 °F 61% 30.17 in 10.0 mi NW 10.4 mph - N/A   Partly Cloudy
12:56 PM 45.0 °F 41.8 °F 30.0 °F 56% 30.20 in 10.0 mi Variable 5.8 mph - N/A   Scattered Clouds
1:08 PM 46.4 °F 42.9 °F 30.2 °F 53% 30.16 in 10.0 mi North 6.9 mph - N/A   Mostly Cloudy
1:22 PM 44.6 °F 40.7 °F 30.2 °F 57% 30.16 in 10.0 mi North 6.9 mph - N/A   Scattered Clouds
1:56 PM 44.1 °F 38.6 °F 30.0 °F 58% 30.19 in 10.0 mi NNW 10.4 mph - N/A   Partly Cloudy
2:56 PM 46.0 °F 43.1 °F 30.9 °F 56% 30.18 in 10.0 mi NNW 5.8 mph - N/A   Clear
3:56 PM 45.0 °F 41.2 °F 30.0 °F 56% 30.17 in 10.0 mi NNW 6.9 mph - N/A   Clear
4:56 PM 39.9 °F 35.8 °F 30.9 °F 70% 30.19 in 10.0 mi NNW 5.8 mph - N/A   Clear
5:56 PM 34.0 °F - 30.0 °F 85% 30.20 in 10.0 mi Calm Calm - N/A   Clear
6:56 PM 32.0 °F - 28.9 °F 88% 30.21 in 8.0 mi Calm Calm - N/A   Clear
7:56 PM 30.0 °F 26.5 °F 28.0 °F 92% 30.20 in 6.0 mi North 3.5 mph - N/A   Clear
8:56 PM 27.0 °F - 24.1 °F 89% 30.20 in 5.0 mi Calm Calm - N/A   Clear
9:56 PM 27.0 °F - 24.1 °F 89% 30.20 in 6.0 mi Calm Calm - N/A   Clear
10:56 PM 26.1 °F - 24.1 °F 92% 30.19 in 6.0 mi Calm Calm - N/A   Clear
11:56 PM 26.1 °F - 24.1 °F 92% 30.19 in 5.0 mi Calm Calm - N/A   Clear